Portsmouth, NH

1:17 PM EDT on September 21, 2017 (GMT -0400)
Pease International Tradeport

Weather History for KPSM - October, 2012

Change the Weather History Date:

Monday, October 29, 2012

  Actual Average Record
Temperature  
Mean Temperature 54 °F -  
Max Temperature 59 °F 53 °F 74 °F (2015)
Min Temperature 51 °F 36 °F 24 °F (1987)
Degree Days  
Heating Degree Days 10    
Growing Degree Days 4 (Base 50)    
Moisture  
Dew Point 55 °F    
Average Humidity 98    
Maximum Humidity 100    
Minimum Humidity 94    
Precipitation  
Precipitation 1.17 in - - ()
Sea Level Pressure  
Sea Level Pressure 29.57 in    
Wind  
Wind Speed 20 mph (NE)    
Max Wind Speed 32 mph    
Max Gust Speed 52 mph    
Visibility 2 miles    
Events Rain    
Averages and records for this station are not official NWS values.
T = Trace of Precipitation, MM = Missing Value Source: NWS Daily Summary

Daily Weather History Graph

Daily Weather History Graph

Search for Another Location

Airport or City:

Trip Planner

Search our weather history database for the weather conditions in past years. The results will help you decide how hot, cold, wet, or windy it might be!

Date:

Astronomy

Oct. 29, 2012 Rise Set
Actual Time 7:14 AM EDT 5:38 PM EDT
Civil Twilight 6:45 AM EDT 6:07 PM EDT
Nautical Twilight 6:11 AM EDT 6:41 PM EDT
Astronomical Twilight 5:38 AM EDT 7:14 PM EDT
Moon 5:27 PM EDT (10/29) 7:02 AM EDT (10/29)
Length of Visible Light 11h 22m
Length of Day
10h 23m
Full, 100% of the Moon is Illuminated
Oct 29
Full
Oct 29
Full
Nov 6
Last Quarter
Nov 13
New
Nov 20
First Quarter

Hourly Weather History & Observations

Time (EDT) Temp. Dew Point Humidity Pressure Visibility Wind Dir Wind Speed Gust Speed Precip Events Conditions
12:55 AM 51.4 °F 50.9 °F 98% 29.82 in 2.5 mi NNE 12.7 mph - 0.02 in   Light Drizzle
1:55 AM 51.3 °F 50.7 °F 98% 29.80 in 6.0 mi NNE 18.4 mph 24.2 mph 0.02 in   Overcast
2:55 AM 51.1 °F 50.5 °F 98% 29.78 in 2.5 mi NNE 13.8 mph 20.7 mph 0.02 in   Light Drizzle
3:55 AM 51.8 °F 51.4 °F 99% 29.75 in 2.0 mi NNE 16.1 mph 23.0 mph 0.02 in   Light Drizzle
4:55 AM 52.5 °F 52.3 °F 99% 29.73 in 2.0 mi NE 18.4 mph 24.2 mph 0.01 in   Light Drizzle
5:55 AM 52.9 °F 52.3 °F 98% 29.71 in 2.0 mi NE 15.0 mph 24.2 mph 0.02 in   Light Drizzle
6:17 AM 53.6 °F 51.8 °F 94% 29.71 in 1.5 mi NE 16.1 mph 29.9 mph N/A Rain Light Rain
6:55 AM 53.2 °F 53.1 °F 99% 29.69 in 1.5 mi NE 17.3 mph 27.6 mph 0.01 in   Light Drizzle
7:25 AM 53.6 °F 53.6 °F 100% 29.68 in 1.0 mi NE 20.7 mph 28.8 mph N/A   Light Drizzle
7:55 AM 54.1 °F 53.8 °F 99% 29.69 in 1.5 mi NE 19.6 mph 29.9 mph 0.01 in   Light Drizzle
8:55 AM 54.5 °F 54.0 °F 98% 29.67 in 1.0 mi NE 19.6 mph 32.2 mph 0.02 in Rain Light Rain
9:55 AM 54.7 °F 54.3 °F 99% 29.65 in 1.0 mi NE 21.9 mph 29.9 mph 0.03 in Rain Light Rain
10:55 AM 55.2 °F 54.7 °F 98% 29.61 in 1.0 mi NE 19.6 mph 36.8 mph 0.03 in Rain Light Rain
11:55 AM 55.6 °F 54.7 °F 97% 29.58 in 1.5 mi NE 19.6 mph 49.5 mph 0.01 in Rain Light Rain
12:31 PM 55.4 °F 55.4 °F 100% 29.57 in 0.8 mi NE 20.7 mph 36.8 mph N/A Rain Light Rain
12:55 PM 55.6 °F 55.2 °F 99% 29.54 in 0.8 mi NE 29.9 mph 43.7 mph 0.01 in Rain Light Rain
1:55 PM 55.8 °F 55.2 °F 98% 29.50 in 1.0 mi NE 27.6 mph 44.9 mph 0.01 in   Light Drizzle
2:55 PM 55.9 °F 55.0 °F 97% 29.45 in 1.5 mi NE 27.6 mph 43.7 mph 0.01 in   Light Drizzle
3:55 PM 56.1 °F 55.6 °F 98% 29.40 in 1.5 mi NE 32.2 mph 49.5 mph 0.03 in Rain Light Rain
4:55 PM 56.5 °F 55.9 °F 98% 29.40 in 1.5 mi NE 27.6 mph 42.6 mph 0.18 in Rain Light Rain
5:55 PM 57.7 °F 57.2 °F 98% 29.39 in 1.5 mi ENE 28.8 mph 42.6 mph 0.12 in Rain Light Rain
6:55 PM 58.1 °F 57.6 °F 98% 29.39 in 3.0 mi ENE 27.6 mph 46.0 mph 0.05 in Rain Light Rain
7:55 PM 58.3 °F 57.9 °F 99% 29.36 in 4.0 mi ENE 31.1 mph 47.2 mph 0.09 in Rain Light Rain
8:55 PM 58.8 °F 58.3 °F 98% 29.34 in 3.0 mi East 29.9 mph 51.8 mph 0.04 in Rain Light Rain
9:55 PM 58.6 °F 58.3 °F 99% 29.34 in 2.5 mi ENE 29.9 mph 51.8 mph 0.10 in Rain Rain
10:55 PM 58.8 °F 58.5 °F 99% 29.37 in 4.0 mi East 25.3 mph 40.3 mph 0.30 in Rain Rain
11:55 PM 59.4 °F 59.2 °F 99% 29.38 in 5.0 mi East 24.2 mph 32.2 mph 0.01 in Rain Light Rain